Date String (YYYY-MM-DD hh:mm:ss) UTC,Instrument flags,absolute air pressure of the measurement (hPa),sample flow rate (lpm),inlet stack bypass flow (lpm),air temperature of the measurement (°C),ambient temperature measured by the external sensor (°C),aerosol sample conditioner tube jacket temperature (°C),OPC LED temperature (°C),internal box temperature (°C),relative humidity of the measurement (%),span deviation,mass concentration of particles derived from Lorenz-Mie calculation of OPC scattering (μg/m³),mass concentration of particles derived from Lorenz-Mie calculation of OPC scattering (μg/m³),mass concentration of particles derived from Lorenz-Mie calculation of OPC scattering (μg/m³)
DateTimeUTC,F1_M11,P_M11,Q1_M11,Q2_M11,T1_M11,T2_M11,T3_M11,T4_M11,T5_M11,U1_M11,ZSPAN_M11,X2_M11,X0_M11,X1_M11
2024-01-20 12:00:00,SystemResetWarning,0829.1,5.00,000.00,018.7,018.0,000.0,027.2,020.0,11.4,0000.0,0006.60,0011.17,0006.09
2024-01-20 12:01:00,SystemResetWarning,0829.1,5.01,000.00,018.7,017.9,000.0,027.2,020.0,11.4,0000.0,0006.68,0011.36,0006.12
2024-01-20 12:02:00,SystemResetWarning,0829.1,5.00,000.00,018.7,017.9,000.0,027.2,020.0,11.4,0000.0,0006.78,0011.69,0006.16
2024-01-20 12:03:00,SystemResetWarning,0829.1,4.99,000.00,018.7,017.9,000.0,027.2,020.0,11.4,0000.0,0006.83,0011.92,0006.18
2024-01-20 12:04:00,SystemResetWarning,0829.1,4.99,000.00,018.7,017.9,000.0,027.2,020.0,11.4,0000.0,0006.80,0011.84,0006.18
2024-01-20 12:05:00,SystemResetWarning,0829.1,5.00,000.00,018.7,017.9,000.0,027.2,020.0,11.4,0000.0,0006.78,0011.86,0006.18
2024-01-20 12:06:00,SystemResetWarning,0829.1,5.00,000.00,018.7,017.9,000.0,027.2,020.0,11.4,0000.0,0006.78,0011.94,0006.18
2024-01-20 12:07:00,SystemResetWarning,0829.1,5.02,000.00,018.7,017.8,000.0,027.2,020.0,11.4,0000.0,0006.76,0011.77,0006.16
2024-01-20 12:08:00,SystemResetWarning,0829.1,5.01,000.00,018.7,017.8,000.0,027.2,020.1,11.4,0000.0,0006.73,0011.86,0006.13
2024-01-20 12:09:00,SystemResetWarning,0829.2,5.00,000.00,018.8,018.1,000.0,027.2,020.5,11.4,0000.0,0006.71,0011.56,0006.12
2024-01-20 12:10:00,SystemResetWarning,0829.2,5.01,000.00,018.9,018.8,000.0,027.2,020.9,11.3,0000.0,0006.71,0011.80,0006.11
2024-01-20 12:11:00,SystemResetWarning,0829.2,5.00,000.00,019.0,019.0,000.0,027.2,020.7,11.3,0000.0,0006.69,0011.70,0006.11
2024-01-20 12:12:00,SystemResetWarning,0829.1,4.99,000.00,019.0,018.9,000.0,027.2,020.5,11.3,0000.0,0006.66,0011.64,0006.09
2024-01-20 12:13:00,SystemResetWarning,0829.1,4.99,000.00,019.0,018.8,000.0,027.2,020.4,11.3,0000.0,0006.58,0011.46,0006.05
2024-01-20 12:14:00,SystemResetWarning,0829.1,5.00,000.00,019.0,018.7,000.0,027.2,020.3,11.3,0000.0,0006.56,0011.35,0006.02
2024-01-20 12:15:00,SystemResetWarning,0829.1,5.00,000.00,019.0,018.6,000.0,027.2,020.2,11.3,0000.0,0006.56,0011.34,0006.02
2024-01-20 12:16:00,SystemResetWarning,0829.1,5.00,000.00,019.0,018.5,000.0,027.2,020.1,11.3,0000.0,0006.58,0011.33,0006.02
2024-01-20 12:17:00,SystemResetWarning,0829.1,5.00,000.00,018.9,018.4,000.0,027.2,020.1,11.3,0000.0,0006.60,0011.26,0006.03
2024-01-20 12:18:00,SystemResetWarning,0829.1,5.00,000.00,018.9,018.4,000.0,027.2,020.1,11.3,0000.0,0006.66,0011.27,0006.06
2024-01-20 12:19:00,SystemResetWarning,0829.1,5.00,000.00,018.9,018.3,000.0,027.2,020.0,11.3,0000.0,0006.71,0011.59,0006.07
2024-01-20 12:20:00,SystemResetWarning,0829.1,4.99,000.00,018.9,018.2,000.0,027.2,020.0,11.3,0000.0,0006.72,0011.58,0006.08
2024-01-20 12:21:00,SystemResetWarning,0829.1,5.00,000.00,018.8,018.2,000.0,027.2,020.0,11.3,0000.0,0006.71,0011.07,0006.10
2024-01-20 12:22:00,SystemResetWarning,0829.0,5.01,000.00,018.8,018.1,000.0,027.2,020.0,11.3,0000.0,0006.74,0011.05,0006.12
2024-01-20 12:23:00,SystemResetWarning,0829.1,5.01,000.00,018.8,018.1,000.0,027.2,020.0,11.3,0000.0,0006.75,0011.40,0006.15
2024-01-20 12:24:00,SystemResetWarning,0829.1,4.99,000.00,018.8,018.1,000.0,027.2,020.0,11.4,0000.0,0006.78,0011.82,0006.18
2024-01-20 12:25:00,SystemResetWarning,0829.1,4.99,000.00,018.8,018.1,000.0,027.2,020.0,11.4,0000.0,0006.77,0012.18,0006.19
2024-01-20 12:26:00,SystemResetWarning,0829.1,4.99,000.00,018.8,018.0,000.0,027.2,020.0,11.4,0000.0,0006.80,0012.61,0006.21
2024-01-20 12:27:00,SystemResetWarning,0829.0,5.02,000.00,018.8,018.0,000.0,027.2,020.0,11.4,0000.0,0006.83,0013.20,0006.22
2024-01-20 12:28:00,SystemResetWarning,0829.1,4.99,000.00,018.8,018.0,000.0,027.2,020.0,11.4,0000.0,0006.88,0013.27,0006.25
2024-01-20 12:29:00,SystemResetWarning,0829.1,5.00,000.00,018.8,018.0,000.0,027.2,020.0,11.4,0000.0,0006.87,0013.25,0006.27
2024-01-20 12:30:00,SystemResetWarning,0829.1,5.00,000.00,018.8,018.0,000.0,027.2,020.0,11.4,0000.0,0006.90,0012.87,0006.33
2024-01-20 12:31:00,SystemResetWarning,0829.1,5.00,000.00,018.8,017.9,000.0,027.2,020.0,11.4,0000.0,0007.02,0013.81,0006.41
2024-01-20 12:32:00,SystemResetWarning,0829.1,4.99,000.00,018.7,017.9,000.0,027.2,020.0,11.5,0000.0,0007.08,0013.95,0006.46
2024-01-20 12:33:00,SystemResetWarning,0829.0,5.00,000.00,018.7,017.9,000.0,027.2,020.0,11.5,0000.0,0007.14,0013.98,0006.47
2024-01-20 12:34:00,SystemResetWarning,0829.0,5.00,000.00,018.7,017.9,000.0,027.2,020.0,11.5,0000.0,0007.11,0013.61,0006.48
2024-01-20 12:35:00,SystemResetWarning,0829.0,5.00,000.00,018.7,017.9,000.0,027.2,020.0,11.5,0000.0,0007.11,0013.13,0006.50
2024-01-20 12:36:00,SystemResetWarning,0829.0,5.01,000.00,018.7,017.9,000.0,027.2,020.0,11.5,0000.0,0007.13,0012.65,0006.52
2024-01-20 12:37:00,SystemResetWarning,0829.1,5.00,000.00,018.7,017.9,000.0,027.2,020.0,11.5,0000.0,0007.19,0012.60,0006.58
2024-01-20 12:38:00,SystemResetWarning,0829.1,5.01,000.00,018.7,017.9,000.0,027.2,020.0,11.5,0000.0,0007.20,0011.88,0006.63
2024-01-20 12:39:00,SystemResetWarning,0829.1,5.00,000.00,018.7,017.8,000.0,027.2,020.0,11.5,0000.0,0007.20,0012.28,0006.65
2024-01-20 12:40:00,SystemResetWarning,0829.1,5.00,000.00,018.7,017.9,000.0,027.2,020.2,11.5,0000.0,0007.21,0012.54,0006.67
2024-01-20 12:41:00,SystemResetWarning,0829.1,5.00,000.00,018.9,018.5,000.0,027.2,020.7,11.4,0000.0,0007.19,0012.47,0006.67
2024-01-20 12:42:00,SystemResetWarning,0829.2,5.00,000.00,019.0,019.1,000.0,027.2,020.9,11.4,0000.0,0007.16,0012.23,0006.67
2024-01-20 12:43:00,SystemResetWarning,0829.2,5.00,000.00,019.1,019.1,000.0,027.2,020.6,11.4,0000.0,0007.21,0012.24,0006.72
2024-01-20 12:44:00,SystemResetWarning,0829.2,4.99,000.00,019.1,018.9,000.0,027.2,020.4,11.4,0000.0,0007.24,0012.54,0006.77
2024-01-20 12:45:00,SystemResetWarning,0829.2,4.99,000.00,019.0,018.8,000.0,027.2,020.2,11.4,0000.0,0007.31,0012.57,0006.82
2024-01-20 12:46:00,SystemResetWarning,0829.2,5.00,000.00,019.0,018.6,000.0,027.2,020.2,11.5,0000.0,0007.39,0012.74,0006.88
2024-01-20 12:47:00,SystemResetWarning,0829.1,5.00,000.00,019.0,018.5,000.0,027.2,020.1,11.5,0001.4,0007.43,0012.76,0006.93
2024-01-20 12:48:00,SystemResetWarning,0829.1,5.00,000.00,018.9,018.4,000.0,027.2,020.0,11.5,0002.3,0007.46,0012.74,0006.98
2024-01-20 12:49:00,SystemResetWarning,0829.2,5.00,000.00,018.9,018.4,000.0,027.2,020.0,11.5,0000.4,0007.53,0012.96,0007.02
2024-01-20 12:50:00,SystemResetWarning,0829.2,5.00,000.00,018.9,018.3,000.0,027.2,020.0,11.6,0000.2,0007.63,0013.04,0007.09
2024-01-20 12:51:00,SystemResetWarning,0829.3,4.99,000.00,018.8,018.2,000.0,027.2,020.0,11.6,0000.0,0007.71,0013.43,0007.16
2024-01-20 12:52:00,SystemResetWarning,0829.3,5.00,000.00,018.8,018.2,000.0,027.2,020.0,11.6,0001.6,0007.85,0013.96,0007.28
2024-01-20 12:53:00,SystemResetWarning,0829.3,5.01,000.00,018.8,018.1,000.0,027.2,020.0,11.6,0002.9,0008.02,0014.12,0007.39
2024-01-20 12:54:00,SystemResetWarning,0829.4,5.00,000.00,018.8,018.0,000.0,027.2,020.0,11.7,0001.3,0008.09,0014.03,0007.46
2024-01-20 12:55:00,SystemResetWarning,0829.3,5.00,000.00,018.8,018.0,000.0,027.2,020.0,11.8,0002.6,0008.13,0013.93,0007.52
2024-01-20 12:56:00,SystemResetWarning,0829.3,5.01,000.00,018.8,018.0,000.0,027.2,020.0,11.8,0003.2,0008.20,0014.64,0007.59
2024-01-20 12:57:00,SystemResetWarning,0829.4,5.00,000.00,018.8,018.0,000.0,027.2,020.0,11.8,0000.8,0008.26,0014.71,0007.66
2024-01-20 12:58:00,SystemResetWarning,0829.4,5.00,000.00,018.8,017.9,000.0,027.2,020.0,11.8,0000.7,0008.40,0014.86,0007.75
2024-01-20 12:59:00,SystemResetWarning,0829.3,5.00,000.00,018.8,017.9,000.0,027.2,020.0,11.8,0003.1,0008.47,0015.27,0007.83
